Date String (YYYY-MM-DD hh:mm:ss) UTC,Instrument flags,Ambient pressure (hPa),Sample flow (lpm),Bypass flow (lpm),Sample temperature (°C),Ambient temperature (°C),ASC tube jacket temperature (°C),LED temperature (°C),Box temperature (°C),Sample RH (%),Span deviation,Mass concentration (μg/m³),Mass concentration (μg/m³),Mass concentration (μg/m³)
DateTimeUTC,F1_M11,P_M11,Q1_M11,Q2_M11,T1_M11,T2_M11,T3_M11,T4_M11,T5_M11,U1_M11,ZSPAN_M11,X0_M11,X2_M11,X1_M11
2023-05-03 22:00:00,,0825.4,5.00,0.00,29.8,28.1,00.0,38.2,31.4,09.4,0000.0,0012.57,0004.91,0003.36
2023-05-03 22:01:00,,0825.3,5.00,0.00,29.9,28.3,00.0,38.2,31.5,09.4,0000.0,0012.84,0004.95,0003.38
2023-05-03 22:02:00,,0825.4,4.99,0.00,29.9,28.5,00.0,38.2,31.5,09.5,0000.0,0012.86,0004.98,0003.39
2023-05-03 22:03:00,,0825.4,4.99,0.00,30.0,28.6,00.0,38.2,31.6,09.8,0000.0,0013.28,0005.04,0003.40
2023-05-03 22:04:00,,0825.4,5.01,0.00,30.0,28.7,00.0,38.2,31.6,09.6,0000.0,0013.40,0005.09,0003.41
2023-05-03 22:05:00,,0825.4,5.00,0.00,30.0,28.9,00.0,38.3,31.7,09.4,0000.0,0013.57,0005.10,0003.42
2023-05-03 22:06:00,,0825.4,5.00,0.00,30.1,28.9,00.0,38.3,31.8,09.4,0000.0,0013.34,0005.05,0003.42
2023-05-03 22:07:00,,0825.4,5.01,0.00,30.1,29.0,00.0,38.3,31.8,09.3,0000.0,0013.33,0005.07,0003.43
2023-05-03 22:08:00,,0825.4,5.00,0.00,30.1,29.0,00.0,38.3,31.8,09.2,0000.0,0012.65,0005.12,0003.44
2023-05-03 22:09:00,,0825.3,4.98,0.00,30.1,27.7,00.0,38.3,31.6,09.2,0000.0,0013.03,0005.12,0003.44
2023-05-03 22:10:00,,0825.3,5.00,0.00,30.0,25.9,00.0,38.2,31.3,09.5,0000.0,0014.63,0005.18,0003.44
2023-05-03 22:11:00,,0825.3,5.01,0.00,30.0,25.6,00.0,38.1,31.2,09.5,0000.0,0015.17,0005.24,0003.43
2023-05-03 22:12:00,,0825.3,5.01,0.00,29.9,25.9,00.0,38.1,31.0,09.5,0000.0,0014.31,0005.25,0003.45
2023-05-03 22:13:00,,0825.3,5.00,0.00,29.8,26.3,00.0,38.2,31.1,09.4,0000.0,0015.05,0005.24,0003.47
2023-05-03 22:14:00,,0825.4,5.00,0.00,29.8,26.7,00.0,38.2,31.2,09.5,0000.0,0014.71,0005.18,0003.47
2023-05-03 22:15:00,,0825.4,5.00,0.00,29.8,27.1,00.0,38.2,31.2,09.5,0000.0,0015.30,0005.18,0003.48
2023-05-03 22:16:00,,0825.4,5.00,0.00,29.8,27.4,00.0,38.2,31.3,09.4,0000.0,0016.04,0005.21,0003.48
2023-05-03 22:17:00,,0825.4,4.99,0.00,29.8,27.7,00.0,38.2,31.4,09.4,0000.0,0016.14,0005.22,0003.48
2023-05-03 22:18:00,,0825.4,4.99,0.00,29.8,28.0,00.0,38.2,31.4,09.4,0000.0,0016.32,0005.22,0003.47
2023-05-03 22:19:00,,0825.3,5.00,0.00,29.9,28.2,00.0,38.2,31.5,09.3,0000.0,0016.22,0005.17,0003.47
2023-05-03 22:20:00,,0825.3,5.00,0.00,29.9,28.4,00.0,38.2,31.5,09.4,0000.0,0015.61,0005.13,0003.46
2023-05-03 22:21:00,,0825.4,5.00,0.00,29.9,28.5,00.0,38.2,31.6,09.5,0000.0,0014.57,0005.16,0003.46
2023-05-03 22:22:00,,0825.4,5.00,0.00,30.0,28.7,00.0,38.2,31.6,09.4,0000.0,0014.15,0005.13,0003.44
2023-05-03 22:23:00,,0825.3,5.00,0.00,30.0,28.8,00.0,38.2,31.7,09.4,0000.0,0014.23,0005.15,0003.44
2023-05-03 22:24:00,,0825.3,5.00,0.00,30.0,28.9,00.0,38.3,31.7,09.5,0000.0,0013.41,0005.09,0003.42
2023-05-03 22:25:00,,0825.3,5.00,0.00,30.1,29.0,00.0,38.3,31.8,09.9,0000.0,0013.30,0005.10,0003.40
2023-05-03 22:26:00,,0825.4,5.00,0.00,30.1,29.1,00.0,38.3,31.8,09.7,0000.0,0013.10,0005.12,0003.39
2023-05-03 22:27:00,,0825.3,4.99,0.00,30.2,28.8,00.0,38.3,31.9,09.7,0000.0,0012.42,0005.13,0003.38
2023-05-03 22:28:00,,0825.3,4.99,0.00,30.1,27.0,00.0,38.3,31.5,09.3,0000.0,0013.99,0005.23,0003.38
2023-05-03 22:29:00,,0825.3,5.00,0.00,30.0,25.6,00.0,38.2,31.2,09.4,0000.0,0014.04,0005.23,0003.38
2023-05-03 22:30:00,,0825.3,5.00,0.00,29.9,25.7,00.0,38.1,31.2,09.4,0000.0,0014.95,0005.20,0003.38
2023-05-03 22:31:00,,0825.3,5.01,0.00,29.8,26.0,00.0,38.2,31.1,09.7,0000.0,0015.64,0005.20,0003.37
2023-05-03 22:32:00,,0825.2,5.01,0.00,29.8,26.4,00.0,38.2,31.1,10.0,0000.0,0015.50,0005.15,0003.36
2023-05-03 22:33:00,,0825.2,4.99,0.00,29.8,26.9,00.0,38.2,31.2,09.9,0000.0,0015.05,0005.11,0003.35
2023-05-03 22:34:00,,0825.2,5.00,0.00,29.8,27.3,00.0,38.2,31.3,09.9,0000.0,0015.38,0005.09,0003.33
2023-05-03 22:35:00,,0825.2,5.01,0.00,29.8,27.6,00.0,38.2,31.4,09.5,0000.0,0015.83,0005.07,0003.31
2023-05-03 22:36:00,,0825.2,5.01,0.00,29.9,27.9,00.0,38.2,31.4,09.8,0000.0,0016.64,0005.06,0003.31
2023-05-03 22:37:00,,0825.2,4.98,0.00,29.9,28.1,00.0,38.2,31.5,09.8,0000.0,0017.24,0004.97,0003.31
2023-05-03 22:38:00,,0825.2,4.99,0.00,29.9,28.3,00.0,38.2,31.5,09.9,0000.0,0017.16,0004.89,0003.30
2023-05-03 22:39:00,,0825.2,5.01,0.00,30.0,28.5,00.0,38.2,31.6,10.1,0000.0,0016.01,0004.80,0003.29
2023-05-03 22:40:00,,0825.3,5.01,0.00,30.0,28.7,00.0,38.3,31.7,09.8,0000.0,0015.39,0004.75,0003.30
2023-05-03 22:41:00,,0825.2,5.00,0.00,30.0,28.8,00.0,38.3,31.7,09.4,0000.0,0015.26,0004.84,0003.30
2023-05-03 22:42:00,,0825.2,5.00,0.00,30.1,28.9,00.0,38.3,31.7,09.8,0000.0,0015.10,0004.84,0003.30
2023-05-03 22:43:00,,0825.3,5.00,0.00,30.1,29.0,00.0,38.3,31.8,09.4,0000.0,0014.73,0004.81,0003.31
2023-05-03 22:44:00,,0825.3,5.00,0.00,30.2,28.8,00.0,38.3,31.8,09.3,0000.0,0014.74,0004.80,0003.33
2023-05-03 22:45:00,,0825.2,4.99,0.00,30.1,27.1,00.0,38.3,31.5,09.5,0000.0,0014.96,0004.79,0003.35
2023-05-03 22:46:00,,0825.1,5.00,0.00,30.0,25.6,00.0,38.2,31.3,09.5,0000.0,0014.30,0004.85,0003.36
2023-05-03 22:47:00,,0825.1,5.00,0.00,29.9,25.6,00.0,38.1,31.2,09.6,0000.0,0013.43,0004.84,0003.38
2023-05-03 22:48:00,,0825.1,5.02,0.00,29.9,26.0,00.0,38.2,31.2,10.0,0000.0,0012.69,0004.94,0003.39
2023-05-03 22:49:00,,0825.1,4.99,0.00,29.8,26.4,00.0,38.2,31.2,09.8,0000.0,0012.63,0005.00,0003.41
2023-05-03 22:50:00,,0825.1,5.00,0.00,29.8,26.8,00.0,38.2,31.2,10.0,0000.0,0013.04,0005.06,0003.44
2023-05-03 22:51:00,,0825.1,5.00,0.00,29.8,27.2,00.0,38.2,31.3,10.1,0000.0,0013.20,0005.08,0003.44
2023-05-03 22:52:00,,0825.1,5.00,0.00,29.8,27.5,00.0,38.2,31.3,10.1,0000.0,0012.77,0005.04,0003.43
2023-05-03 22:53:00,,0825.1,4.99,0.00,29.9,27.8,00.0,38.2,31.4,10.3,0000.0,0011.87,0004.97,0003.43
2023-05-03 22:54:00,,0825.1,5.00,0.00,29.9,28.1,00.0,38.2,31.5,09.8,0000.0,0012.04,0004.99,0003.44
2023-05-03 22:55:00,,0825.1,5.01,0.00,29.9,28.3,00.0,38.2,31.5,09.9,0000.0,0012.42,0005.00,0003.43
2023-05-03 22:56:00,,0825.1,5.00,0.00,30.0,28.5,00.0,38.2,31.6,10.2,0000.0,0011.94,0004.97,0003.43
2023-05-03 22:57:00,,0825.1,5.00,0.00,30.0,28.6,00.0,38.2,31.6,10.0,0000.0,0011.92,0004.91,0003.43
2023-05-03 22:58:00,,0825.1,5.00,0.00,30.0,28.8,00.0,38.3,31.7,10.0,0000.0,0012.42,0004.92,0003.42
2023-05-03 22:59:00,,0825.1,5.00,0.00,30.1,28.9,00.0,38.3,31.8,09.9,0000.0,0012.39,0004.86,0003.40
